Location: Unspecified
(32.5099°N, 80.0190°W)
Time: 17:44:41
(UTC-04:00)

CZ-3 Stage 3 - Visible Passes

Search period start: 29 August 2016 00:00
Search period end: 08 September 2016 00:00
Orbit: 482 x 34721 km, 30.6° (Epoch: 27 August)

Date Brightness Start Highest point End Pass type
(mag) Time Alt. Az. Time Alt. Az. Time Alt. Az.
30 Aug 4.7 22:45:46 10° WNW 23:05:23 36° SW 23:05:23 36° SW visible
02 Sep 4.8 22:37:15 10° WNW 22:56:58 35° SW 22:57:04 35° SW visible
05 Sep 4.8 22:28:43 10° WNW 22:48:19 33° SW 22:48:46 33° SW visible
